STARLINK-1048 (44753 NORAD) Tracking and Keplerian Element Data

This shows tracking and keplerian element data for the satellite.

Feedback or suggestion? Click here.




ElementValue
Catalog44753
NameSTARLINK-1048
Epoch Orbit161
Epoch Day93.91667824
Epoch Year2020
RAAN193.6457
Inclination52.9994
Eccentricity0.0001328
Argument of Perigee85.3597
Mean Anonmoly65.1442
Mean Motion15.05606449
Decay Rate-0.00034868
L11 44753U 19074AS 20093.91667824 -.00034868 00000-0 -23840-2 0 9991
L22 44753 52.9994 193.6457 0001328 85.3597 65.1442 15.05606449 1619

Live tracking and technical data element details for STARLINK-1048 (NORAD 44753). STARLINK-1048 can be tracked NOW for your location showing map with azimuth and elevation plus other details from your city location.

Track the satellite on the map from your city or location and see movement details for azimuth, elevation, latitude, longitude, range, height, and movement on the map or in text.







IsCatalogInMostPopularTable: catalog: 44753, numindb: 48
Update: records affected: 1



GetName: 44753 STARLINK-1048

Hit Count: updated at: Fri, 10 Apr 2020 18:13:14 GMT